RECURVE (52944 NORAD) Tracking and Keplerian Element Data

This shows tracking and keplerian element data for the satellite.

Feedback or suggestion? Click here.




ElementValue
Catalog52944
NameRECURVE
Epoch Orbit988
Epoch Day248.10952933
Epoch Year2022
RAAN126.0173
Inclination44.9932
Eccentricity0.0002813
Argument of Perigee246.8735
Mean Anonmoly113.185
Mean Motion15.23876552
Decay Rate7.433E-05
L11 52944U 22074A 22248.10952933 .00007433 00000+0 31375-3 0 9997
L22 52944 44.9932 126.0173 0002813 246.8735 113.1850 15.23876552 9884

Live tracking and technical data element details for RECURVE (NORAD 52944). RECURVE can be tracked NOW for your location showing map with azimuth and elevation plus other details from your city location.

Track the satellite on the map from your city or location and see movement details for azimuth, elevation, latitude, longitude, range, height, and movement on the map or in text.







IsCatalogInMostPopularTable: catalog: 52944, numindb: 8
Update: records affected: 1



GetName: 52944 RECURVE

Hit Count: updated at: Sun, 25 Sep 2022 09:04:07 GMT